Flag for Kazakhstan Weather past 2 weeks in Aqtobe, Kazakhstan

Now
59 °F

Passing clouds.


Feels Like: 57 °F
Forecast: 37 / 62 °F
Wind: 10 mph from Southeast

Location: Aktjubinsk


UV Index: 3 (Moderate)

Visibility: N/A


Pressure: 30.42 "Hg

Humidity: 23%

Dew point: 21 °F

Location of AqtobeLocation

Historic Weather in Aqtobe

°F

Aqtobe temperature yesterday

Maximum temperature yesterday: 57 °F (at 3:30 PM)
Minimum temperature yesterday: 28 °F (at 6:00 AM)
Average temperature yesterday: 46 °F

Past Weeks' High & Low Weather Summary

 TemperatureHumidityPressure
High57 °F (Apr 15, 3:30 PM)100% (Apr 2, 7:00 AM)30.60 "Hg (Apr 2, 7:00 AM)
Low19 °F (Apr 12, 4:00 AM)24% (Apr 12, 1:30 PM)29.56 "Hg (Apr 6, 5:30 AM)
Average36 °F70%30.07 "Hg
* Reported Apr 1 11:00 AM — Apr 16 11:30 AM, Aqtobe, Weather by CustomWeather, © 2014

Note: Actual official high and low records may vary slightly from our data, if they occured in-between our weather recording intervals... More about our weather records

Advertising

Historic Weather Conditions — Data for Previous 24 hours

 ConditionsComfort  
Time TempWeatherWind HumidityBarometerVisibility
11:30 AM
Apr 16
57 °FSunny.10 mph27%30.42 "Hg10 mi
11:00 AM57 °FPassing clouds.8 mph29%30.42 "HgN/A
10:30 AM55 °FPassing clouds.6 mph31%30.45 "HgN/A
10:00 AM54 °FPassing clouds.3 mph33%30.45 "HgN/A
9:30 AM48 °FSunny.1 mph46%30.45 "Hg10 mi
9:00 AM46 °FPassing clouds.3 mph50%30.45 "HgN/A
8:30 AM43 °FPassing clouds.3 mph61%30.42 "HgN/A
8:00 AM39 °FSunny.1 mph70%30.42 "Hg10 mi
7:30 AM34 °FSunny.No wind81%30.42 "Hg10 mi
7:00 AM34 °FSunny.3 mph81%30.42 "Hg10 mi
6:30 AM30 °FSunny.3 mph80%30.42 "Hg10 mi
6:00 AM30 °FClear.3 mph86%30.42 "Hg10 mi
5:30 AM30 °FClear.1 mph86%30.42 "Hg10 mi
4:00 AM32 °FClear.No wind80%30.39 "Hg10 mi
3:30 AM32 °FClear.1 mph80%30.39 "Hg10 mi
3:00 AM34 °FClear.3 mph75%30.39 "Hg10 mi
2:30 AM34 °FClear.1 mph75%30.39 "Hg10 mi
2:00 AM34 °FClear.3 mph75%30.39 "Hg10 mi
1:30 AM34 °FClear.1 mph75%30.39 "Hg10 mi
1:00 AM36 °FClear.3 mph75%30.39 "Hg10 mi
12:30 AM37 °FClear.No wind70%30.39 "Hg10 mi
12:00 AM37 °FClear.3 mph75%30.39 "Hg10 mi
11:30 PM
Apr 15
39 °FPassing clouds.3 mph70%30.39 "HgN/A
11:00 PM39 °FClear.3 mph70%30.39 "Hg10 mi
10:30 PM41 °FClear.3 mph66%30.39 "Hg10 mi
10:00 PM41 °FClear.3 mph66%30.39 "Hg10 mi
9:30 PM41 °FClear.6 mph66%30.39 "Hg10 mi
9:00 PM45 °FClear.6 mph53%30.39 "Hg10 mi
8:30 PM50 °FClear.6 mph40%30.36 "Hg10 mi
8:00 PM52 °FSunny.6 mph35%30.36 "Hg10 mi
7:30 PM54 °FSunny.10 mph33%30.36 "Hg10 mi
7:00 PM55 °FSunny.13 mph28%30.36 "Hg10 mi
6:30 PM57 °FSunny.17 mph27%30.36 "Hg10 mi
6:00 PM57 °FSunny.20 mph25%30.36 "Hg10 mi
5:30 PM57 °FSunny.20 mph25%30.36 "Hg10 mi
5:00 PM57 °FSunny.15 mph27%30.36 "Hg10 mi
4:30 PM57 °FSunny.20 mph25%30.36 "Hg10 mi
4:00 PM55 °FSunny.15 mph26%30.36 "Hg10 mi
3:30 PM57 °FSunny.15 mph25%30.39 "Hg10 mi
3:00 PM55 °FSunny.20 mph26%30.39 "Hg10 mi
2:30 PM55 °FPassing clouds.15 mph26%30.39 "HgN/A
2:00 PM55 °FSunny.15 mph31%30.39 "Hg10 mi
1:30 PM55 °FSunny.20 mph28%30.39 "Hg10 mi
1:00 PM54 °FSunny.17 mph26%30.39 "Hg10 mi
Weather by CustomWeather, © 2014

See weather overview